TimeEDT,TemperatureF,Dew PointF,Humidity,Sea Level PressureIn,VisibilityMPH,Wind Direction,Wind SpeedMPH,Gust SpeedMPH,PrecipitationIn,Events,Conditions,WindDirDegrees,DateUTC
12:52 AM,55.0,53.1,93,29.89,6.0,NW,3.5,-,N/A,,Clear,310,2013-08-05 04:52:00
1:52 AM,57.9,55.0,90,29.89,10.0,Calm,Calm,-,N/A,,Clear,0,2013-08-05 05:52:00
2:52 AM,55.0,53.1,93,29.89,10.0,WNW,4.6,-,N/A,,Clear,290,2013-08-05 06:52:00
3:52 AM,54.0,52.0,93,29.90,10.0,West,3.5,-,N/A,,Clear,270,2013-08-05 07:52:00
4:52 AM,53.1,51.1,93,29.93,10.0,Calm,Calm,-,N/A,,Clear,0,2013-08-05 08:52:00
5:52 AM,51.1,50.0,96,29.95,10.0,Calm,Calm,-,N/A,,Clear,0,2013-08-05 09:52:00
6:52 AM,57.9,54.0,87,29.96,10.0,WSW,3.5,-,N/A,,Clear,240,2013-08-05 10:52:00
7:52 AM,62.1,54.0,75,29.96,10.0,Variable,5.8,-,N/A,,Clear,0,2013-08-05 11:52:00
8:52 AM,66.0,52.0,60,29.97,10.0,NW,11.5,17.3,N/A,,Clear,320,2013-08-05 12:52:00
9:52 AM,68.0,50.0,52,29.96,10.0,NNW,9.2,17.3,N/A,,Clear,330,2013-08-05 13:52:00
10:52 AM,71.1,48.9,45,29.96,10.0,West,10.4,19.6,N/A,,Clear,280,2013-08-05 14:52:00
11:52 AM,71.1,46.0,41,29.96,10.0,WNW,9.2,16.1,N/A,,Clear,290,2013-08-05 15:52:00
12:52 PM,72.0,45.0,38,29.96,10.0,NW,9.2,-,N/A,,Clear,320,2013-08-05 16:52:00
1:52 PM,73.9,46.0,37,29.96,10.0,NW,6.9,17.3,N/A,,Clear,320,2013-08-05 17:52:00
2:52 PM,75.0,44.1,33,29.95,10.0,NW,8.1,-,N/A,,Clear,320,2013-08-05 18:52:00
3:52 PM,75.9,44.1,32,29.94,10.0,NW,10.4,-,N/A,,Clear,310,2013-08-05 19:52:00
4:52 PM,77.0,44.1,31,29.95,10.0,NNW,8.1,-,N/A,,Clear,330,2013-08-05 20:52:00
5:52 PM,75.9,42.1,30,29.96,10.0,NNW,4.6,-,N/A,,Clear,340,2013-08-05 21:52:00
6:52 PM,73.9,45.0,35,29.98,10.0,Calm,Calm,-,N/A,,Clear,0,2013-08-05 22:52:00
7:52 PM,61.0,55.0,81,30.00,10.0,Calm,Calm,-,N/A,,Clear,0,2013-08-05 23:52:00
8:52 PM,54.0,51.1,90,30.02,10.0,Calm,Calm,-,N/A,,Clear,0,2013-08-06 00:52:00
9:52 PM,52.0,50.0,93,30.04,10.0,Calm,Calm,-,N/A,,Clear,0,2013-08-06 01:52:00
10:52 PM,51.1,48.9,92,30.04,10.0,Calm,Calm,-,N/A,,Clear,0,2013-08-06 02:52:00
11:52 PM,50.0,48.0,93,30.05,10.0,Calm,Calm,-,N/A,,Clear,0,2013-08-06 03:52:00